Tracking 34085 objects as of 13-May-2026
HD Live streaming from Space Station
objects crossing your sky now

ELECTRON KICK STAGE R/B

Track ELECTRON KICK STAGE R/B now!
10-day predictions


NORAD ID: 68293
Int'l Code: 2026-056C
Perigee: 340.9 km
Apogee: 525.9 km
Inclination: 50.3 °
Period: 93.1 minutes
Semi major axis: 6804 km
RCS: Unknown
Launch date: March 20, 2026
Source: United States (US)
Launch site: Rocket Lab Launch Complex (RLLC)

Note: This is a ROCKET BODY
Your satellite tracking list
Your tracking list is empty




NASA's NSSDC Master Catalog

Two Line Element Set (TLE):
1 68293U 26056C   26132.63541182  .00042931  00000-0  58725-3 0  9990
2 68293  50.2886 140.7332 0136000 227.5014 131.4400 15.46743712  8179
Source of the keplerian elements: AFSPC